CAPE
1652 1621 1698 1912 2159 2403 2175 2036 2032 2136 2243 2336 2372 2348 2334 2310 2432 2784 2784 2799 2669 2066 1235 994 849 441 139 7 0 0 0 0 0 0 0 0 0 0 0 5 7 0 0
1519 1787 1875 2111 2253 2176 2393 2154 2143 2257 2390 2512 2566 2504 2474 2571 2865 2918 2749 3254 2614 1539 1022 856 297 101 0 0 0 0 0 0 0 0 0 0 0 0 0 6 2 0 0
1382 1814 2191 2195 2428 2503 2664 2613 2444 2348 2444 2437 2295 2314 2486 2826 3063 2873 3493 2484 1743 1260 1068 464 157 0 0 0 0 0 0 0 0 0 0 0 0 0 1 13 2 0 0
1178 1752 2037 2211 2368 2436 2714 2639 2662 2614 2456 2446 2426 2429 2643 3010 2975 3193 2776 1966 1315 951 542 115 0 0 0 0 0 0 0 0 0 0 0 0 0 0 0 3 0 0 0
1212 1551 2056 2210 2245 2364 2435 2526 2546 2508 2489 2502 2352 2451 2911 2855 2583 3554 1946 1382 1004 408 1 0 0 0 0 0 0 0 0 0 0 0 0 0 0 0 0 0 0 0 0
1876 1865 2058 2243 2234 2409 2421 2485 2486 2504 2488 2473 2422 2559 2799 2577 2693 2261 1718 1369 451 0 0 0 0 0 0 0 0 0 0 0 0 0 0 0 0 0 0 0 0 10 1
2388 2302 2357 2434 2467 2613 2510 2518 2578 2694 2738 2713 2674 2747 2846 2948 2258 1953 1349 706 19 0 0 0 0 0 0 0 0 0 0 0 0 0 0 0 0 0 0 0 1 5 0
2547 2433 2591 2792 2513 2833 2920 2936 2940 2922 3001 2892 2880 3057 3966 2349 1713 922 707 392 0 0 0 0 0 0 0 0 0 0 0 0 0 0 0 0 0 0 0 6 4 7 0
2156 2489 2788 2939 2894 2897 2956 3125 3070 3121 3250 3081 3022 3208 3289 1650 772 368 483 60 0 0 0 0 0 0 0 0 0 0 0 0 0 0 0 0 0 0 0 0 0 0 1
2282 2411 2660 2869 2998 3041 3116 3336 3342 3326 3349 2563 3155 3962 2477 1524 254 102 277 25 0 0 0 0 0 0 0 0 0 0 0 0 0 0 0 0 0 0 0 0 0 1 1
2247 2383 2724 2965 3162 3279 3466 3549 3571 3496 3157 3264 3699 3451 2276 1342 280 22 28 41 0 0 0 0 0 0 0 0 0 0 0 0 0 0 0 0 0 0 0 0 0 0 2
2418 2547 2784 3109 2899 3138 3710 3805 3758 3497 3757 3736 3724 2791 1869 988 245 0 0 20 0 0 0 0 0 0 0 0 0 0 0 0 0 0 0 0 0 0 0 0 0 5 3
2698 2879 3061 3264 3125 3473 3815 3788 3464 3495 2757 3910 2965 2132 1419 760 79 0 0 0 0 0 0 0 0 0 0 0 0 0 0 0 0 0 0 0 0 0 1 0 0 0 3
2974 3251 3388 3505 3376 3571 3458 3301 2134 2318 2386 3383 2783 1815 1435 922 200 0 0 0 0 0 0 0 0 0 0 0 0 0 0 0 0 0 0 0 0 0 2 1 3 4 1
3151 3249 3307 3206 2892 3228 2557 1834 1588 2329 2393 2956 2651 2114 1842 1553 443 0 0 0 0 0 0 0 0 0 0 0 0 0 0 0 0 0 0 0 0 0 0 1 4 6 6
3313 3123 2808 2107 2199 2212 2393 1936 850 1142 1703 2113 2444 2382 2168 2013 434 0 0 0 0 0 0 0 0 0 0 0 0 0 0 0 0 0 0 0 0 0 0 0 1 5 2
2097 1766 1415 1321 1813 2076 2280 2494 2766 1604 958 1041 1419 1855 2039 993 340 0 0 0 0 0 0 0 0 0 0 0 0 0 0 0 0 0 0 0 0 0 0 0 1 4 2
3714 2531 2157 1656 1686 1934 2585 2731 2745 2754 2594 2121 554 765 751 367 94 0 0 0 0 0 0 0 0 0 0 0 0 0 0 0 0 0 0 0 0 0 0 0 0 0 1
1913 3006 3516 3306 3221 2975 2905 2945 2783 2620 2757 2335 430 99 0 0 0 0 0 0 0 0 0 0 0 0 0 0 0 0 0 0 0 0 0 0 0 0 0 0 0 0 0
1068 2067 2551 3236 2906 2809 2805 2940 3041 3231 3117 2406 1443 755 0 0 0 0 0 0 0 0 0 0 0 0 0 0 0 0 0 0 0 0 0 0 0 0 0 0 0 0 0
138 1276 2015 2479 2710 3021 3094 2863 3003 2882 2874 2887 2304 826 0 123 0 0 0 0 0 0 0 0 0 0 0 0 0 0 0 0 0 0 0 0 0 0 0 0 0 0 0
0 29 373 537 950 1362 1854 2115 2370 2529 2450 2302 2123 175 0 0 0 0 0 0 0 24 0 0 0 0 0 0 0 0 0 0 0 0 0 0 0 0 0 0 0 0 0
0 0 1 29 39 124 310 619 1622 1857 1897 2064 2168 462 0 0 0 0 0 0 0 0 0 0 0 0 0 0 0 0 0 0 0 0 0 0 0 0 0 0 0 0 0
0 0 0 0 0 1 4 14 75 110 882 1340 1488 903 63 0 0 0 0 0 0 0 0 0 0 0 0 0 0 0 0 0 0 0 0 0 0 0 0 0 0 0 0
0 0 0 0 0 0 0 0 3 5 5 2 384 669 305 16 0 1 1 0 0 0 0 0 0 0 0 0 0 0 0 0 0 0 0 0 0 0 0 0 0 0 0
0 0 0 0 0 0 0 0 4 5 2 7 4 2 148 112 47 18 3 1 1 0 0 0 0 0 0 0 0 0 0 0 0 0 0 0 0 0 0 0 0 0 0
CIN
-36 -46 -51 -51 -53 -51 -68 -71 -65 -69 -51 -34 -21 -27 -24 -22 -10 -1 -3 -1 -3 -9 -35 -22 -4 -36 -86 -41 0 0 0 0 0 0 0 0 0 0 0 -1 -1 0 0
-56 -40 -51 -45 -48 -55 -65 -78 -73 -79 -55 -35 -24 -18 -21 -16 -1 -1 0 0 0 -22 -23 -10 -87 -142 0 0 0 0 0 0 0 0 0 0 0 0 0 -4 -9 0 0
-87 -57 -42 -49 -48 -50 -59 -68 -66 -85 -66 -54 -65 -54 -25 -5 -1 0 0 -9 -27 -24 -2 -62 -141 0 0 0 0 0 0 0 0 0 0 0 0 0 -1 -2 -7 0 0
-119 -82 -62 -57 -61 -74 -75 -76 -79 -77 -85 -79 -85 -66 -19 -1 -1 -6 -8 -19 -58 -53 -89 -185 0 0 0 0 0 0 0 0 0 0 0 0 0 0 0 -3 -1 0 0
-122 -112 -98 -71 -58 -66 -67 -76 -93 -97 -96 -92 -96 -70 -9 -2 -12 -2 -40 -62 -86 -176 -5 0 0 0 0 0 0 0 0 0 0 0 0 0 0 0 0 -1 0 0 -1
-100 -112 -89 -72 -63 -65 -77 -85 -112 -112 -105 -106 -91 -65 -23 -20 -50 -67 -66 -62 -224 0 0 0 0 0 0 0 0 0 0 0 0 0 0 0 0 0 -1 0 -3 0 -1
-109 -116 -89 -89 -67 -76 -88 -105 -119 -115 -101 -103 -85 -52 -31 -47 -98 -103 -125 -225 -286 0 0 0 0 0 0 0 0 0 0 0 0 0 0 0 0 0 0 0 -4 -1 0
-128 -130 -110 -99 -87 -72 -85 -95 -101 -115 -102 -111 -93 -40 -4 -138 -195 -307 -289 -340 0 0 0 0 0 0 0 0 0 0 0 0 0 0 0 0 0 0 0 -1 -6 -14 0
-186 -155 -129 -118 -100 -103 -110 -97 -109 -98 -89 -110 -83 -43 -48 -263 -427 -506 -377 -547 0 0 0 0 0 0 0 0 0 0 0 0 0 0 0 0 0 0 0 0 0 0 0
-214 -209 -176 -147 -120 -111 -131 -109 -108 -99 -93 -141 -68 -14 -164 -275 -637 -678 -482 -625 0 0 0 0 0 0 0 0 0 0 0 0 0 0 0 0 0 -4 0 0 0 -1 0
-224 -214 -183 -165 -130 -99 -98 -100 -90 -94 -109 -76 -46 -51 -178 -313 -662 -782 -701 -609 0 0 0 0 0 0 0 0 0 0 0 0 0 0 0 0 0 0 0 0 0 -1 0
-213 -203 -195 -165 -147 -114 -66 -77 -73 -99 -67 -41 -52 -122 -231 -411 -670 0 0 -694 0 0 0 0 0 0 0 0 0 0 0 0 0 0 0 0 0 0 0 0 0 0 0
-184 -161 -168 -139 -129 -96 -65 -81 -111 -110 -150 -65 -142 -233 -334 -479 -812 0 0 0 0 0 0 0 0 0 0 0 0 0 0 0 0 0 0 0 0 0 -17 0 0 0 0
-160 -120 -114 -109 -93 -81 -91 -119 -193 -199 -166 -116 -171 -311 -350 -447 -733 0 0 0 0 0 0 0 0 0 0 0 0 0 0 0 0 0 0 0 0 0 -2 -14 -3 -3 -2
-123 -98 -87 -88 -94 -83 -118 -200 -183 -154 -156 -145 -171 -259 -297 -320 -645 -222 0 0 0 0 0 0 0 0 0 0 0 0 0 0 0 0 0 0 0 0 0 -1 -2 -2 -2
-64 -70 -74 -70 -120 -122 -140 -247 -593 -482 -328 -253 -195 -213 -219 -200 -648 0 0 0 0 0 0 0 0 0 0 0 0 0 0 0 0 0 0 0 0 0 0 0 -2 -2 -1
-110 -91 -96 -88 -88 -86 -84 -114 -135 -419 -596 -533 -428 -305 -239 -476 -683 0 0 0 0 0 0 0 0 0 0 0 0 0 0 0 0 0 0 0 0 0 0 0 -2 -3 -2
-17 -33 -10 -44 -18 -23 -29 -59 -75 -146 -187 -271 -716 -607 -566 -712 -860 0 0 0 0 0 0 0 0 0 0 0 0 0 0 0 0 0 0 0 0 0 0 0 0 0 -1
-163 -81 -15 -2 -3 -12 -21 -39 -45 -99 -114 -216 -741 -1011 0 0 0 0 0 0 0 0 0 0 0 0 0 0 0 0 0 0 0 0 0 0 0 0 0 0 0 0 0
-188 -98 -47 -9 -13 -20 -18 -25 -36 -45 -78 -161 -338 -528 0 0 0 0 0 0 0 0 0 0 0 0 0 0 0 0 0 0 0 0 0 0 0 0 0 0 0 0 0
-370 -111 -62 -40 -25 -8 -12 -3 -10 -44 -57 -54 -129 -460 0 -698 0 0 0 0 0 0 0 0 0 0 0 0 0 0 0 0 0 0 0 0 0 0 0 0 0 0 0
-1 -296 -228 -268 -240 -135 -54 -32 -38 -50 -57 -57 -95 -679 0 0 0 0 0 0 0 -305 0 0 0 0 0 0 0 0 0 0 0 0 0 0 0 0 0 0 0 0 0
-1 0 -215 -684 -600 -532 -393 -283 -77 -52 -72 -72 -29 -459 0 0 0 0 0 0 0 -143 0 0 0 0 0 0 0 0 0 0 0 0 0 0 0 0 0 0 0 0 0
0 0 0 0 0 -74 0 -92 -499 -413 -216 -120 -74 -195 -549 0 0 0 0 0 0 0 0 0 0 0 0 0 0 0 0 0 0 0 0 0 0 0 0 0 0 0 0
0 0 0 0 0 0 0 0 0 0 0 0 -280 -203 -355 -468 0 0 0 0 0 0 0 0 0 0 0 0 0 0 0 0 0 0 0 0 0 0 0 0 0 0 0
0 0 0 0 0 0 0 0 0 0 0 0 0 0 -341 -305 -327 -380 0 0 0 0 0 0 0 0 0 0 0 0 0 0 0 0 0 0 0 0 0 0 0 0 0
Wind_Speed
25 23 23 22 22 21 22 20 18 17 17 16 13 9 5 3 6 8 10 10 17 22 22 23 24 22 23 25 26 25 25 22 23 22 25 24 21 24 22 21 23 22 24
21 23 21 21 22 21 22 22 19 18 19 17 13 9 5 4 7 10 12 17 20 22 22 23 24 23 24 25 26 27 26 25 23 25 23 24 24 27 21 19 18 18 21
18 22 22 21 20 21 23 22 20 20 20 18 14 9 6 6 7 11 18 20 21 22 22 24 24 25 26 27 28 26 24 24 24 24 25 25 24 25 22 24 19 21 19
15 18 23 21 19 21 23 23 22 21 23 19 15 10 8 6 8 16 19 20 22 23 24 24 25 24 26 26 27 26 26 21 23 26 27 27 28 24 21 17 19 20 19
14 16 18 20 19 22 22 22 22 22 23 21 16 12 9 8 9 17 19 20 22 23 24 25 25 26 29 31 28 28 28 28 26 27 28 27 28 26 22 12 15 20 18
13 15 15 15 18 19 19 18 18 17 23 21 17 13 10 11 17 18 18 20 21 22 24 25 25 26 29 31 31 33 32 30 31 28 29 28 27 23 22 13 14 16 19
15 15 15 14 14 16 18 18 17 16 24 22 17 13 11 15 16 17 18 20 20 21 22 23 24 24 25 26 28 29 31 31 31 31 31 28 27 23 18 12 15 22 23
12 14 16 16 15 14 16 16 12 14 23 22 18 14 13 14 16 18 18 19 20 21 21 22 22 22 23 24 25 26 29 31 31 30 30 29 29 25 15 16 12 20 23
11 11 10 13 14 15 15 13 8 9 23 22 18 14 13 14 15 17 18 19 20 21 21 21 22 22 22 22 24 25 26 26 25 26 28 28 30 34 32 29 27 30 26
9 10 8 8 10 13 12 11 6 4 25 23 17 12 12 13 14 16 17 18 19 20 20 21 22 22 21 21 22 23 26 27 27 29 26 26 29 30 37 33 32 34 33
13 8 6 6 6 8 9 8 7 20 27 25 9 9 11 12 14 15 16 16 17 18 19 19 20 21 21 21 23 22 24 24 24 27 29 30 28 31 33 36 36 37 37
13 7 6 6 6 8 9 9 14 27 11 5 6 8 9 11 14 16 15 14 16 17 18 19 20 20 21 21 22 23 21 18 25 28 29 30 30 28 30 33 38 38 39
10 11 9 5 11 10 11 14 17 29 13 3 4 7 8 9 11 12 12 14 15 16 18 19 20 20 21 21 21 20 19 20 24 27 29 29 28 28 29 30 30 35 37
5 7 8 6 12 12 15 23 27 29 19 3 3 5 7 8 10 10 10 12 14 16 18 19 19 18 17 20 19 17 19 23 24 25 27 28 28 29 29 27 28 29 33
5 5 7 6 12 15 27 27 33 24 23 3 2 4 5 7 8 9 10 9 10 12 15 15 16 16 17 16 17 19 20 20 22 24 26 27 28 29 29 29 30 31 35
6 5 5 8 15 19 27 25 19 18 17 14 3 2 4 5 9 10 8 8 11 13 12 12 12 14 15 15 16 17 19 19 20 23 24 26 27 28 29 30 31 34 33
10 9 8 18 17 24 30 28 26 20 15 14 10 6 3 7 10 12 11 9 10 11 8 10 10 11 12 14 15 15 17 18 19 20 22 24 25 26 28 30 31 32 34
9 10 12 16 21 26 25 26 25 21 19 14 12 9 2 5 6 7 6 7 9 8 6 7 7 9 10 13 12 14 15 16 17 18 20 22 23 25 27 28 29 30 31
12 11 20 16 18 22 22 23 22 18 14 11 11 10 8 3 2 5 8 3 5 5 4 3 4 6 7 9 11 11 13 14 15 17 18 20 22 24 25 27 29 29 31
15 11 19 17 18 18 19 19 18 17 14 13 12 11 8 6 4 2 4 3 2 4 4 2 1 2 3 5 8 9 10 12 14 15 16 18 19 22 23 25 26 27 29
15 15 16 15 14 14 15 16 14 15 16 16 15 12 8 9 8 7 8 8 7 5 5 4 3 2 1 2 4 7 7 9 11 13 14 15 17 18 20 22 24 26 27
18 15 16 14 13 14 16 18 18 19 19 18 17 15 10 14 13 12 11 10 9 8 6 6 5 4 4 4 3 4 5 8 9 11 13 14 15 16 17 19 21 23 25
16 15 13 12 15 15 17 20 21 24 23 24 22 17 15 15 14 11 11 13 9 10 7 6 7 6 6 6 6 6 5 7 8 9 11 12 13 14 15 16 18 20 21
17 17 14 18 17 17 19 20 23 25 26 25 25 23 20 19 15 13 10 8 9 9 10 7 7 8 8 8 6 7 5 6 6 8 9 10 11 12 13 13 14 15 17
20 17 16 18 20 21 22 23 26 27 27 27 26 22 21 19 15 13 11 8 9 12 13 10 8 8 9 10 9 10 9 7 7 6 7 8 8 9 10 12 12 13 14
21 21 22 25 26 27 29 29 30 29 28 28 28 28 26 18 17 16 13 11 11 10 13 15 11 10 10 12 12 12 10 10 9 9 6 5 6 7 9 9 11 11 12
Wind_Direction
181 180 182 182 183 182 186 183 180 179 191 201 199 193 182 121 65 53 49 52 47 44 47 46 46 47 44 42 40 42 42 43 42 41 35 36 40 34 36 40 36 46 38
178 179 179 179 180 180 184 184 179 177 190 196 193 179 155 116 69 56 56 49 50 49 52 52 49 49 48 47 47 47 49 52 52 43 43 42 41 35 42 49 60 62 51
174 177 178 178 177 179 183 182 180 181 190 198 189 172 143 111 78 61 53 51 53 56 56 52 52 52 50 48 48 49 54 58 53 47 42 44 44 39 46 48 63 60 60
169 172 178 177 176 178 182 182 179 180 194 195 188 171 141 123 85 62 55 58 57 57 56 55 56 57 55 53 53 54 55 59 56 48 43 44 41 46 51 60 64 68 69
168 169 171 173 173 175 174 175 174 174 189 195 180 165 141 119 102 68 62 63 60 60 60 58 58 59 55 49 55 57 55 56 57 52 49 50 48 49 57 69 70 68 71
164 166 164 165 168 170 166 160 154 151 179 183 171 159 138 103 72 67 76 70 67 63 61 61 65 63 59 57 57 59 58 59 57 57 54 54 52 55 58 65 68 69 65
166 164 162 161 162 164 165 162 155 151 178 181 169 152 129 76 75 73 88 73 70 68 67 70 69 70 69 67 66 65 61 61 63 61 58 61 58 57 60 63 65 63 62
171 168 166 165 166 162 159 157 149 144 167 175 165 147 100 78 79 82 86 80 74 72 71 70 71 75 72 70 68 66 64 62 63 65 67 68 64 60 57 63 63 69 64
174 176 179 168 166 164 163 160 157 140 168 172 160 138 91 79 86 84 86 84 78 73 70 74 75 75 78 74 72 69 66 65 67 69 71 71 66 57 55 61 64 58 58
178 167 171 179 178 168 170 169 182 239 172 172 149 113 81 85 97 94 98 88 84 77 74 73 74 78 81 78 76 73 69 65 65 66 71 74 67 64 57 64 65 61 58
160 166 177 191 213 209 197 191 210 230 181 181 94 65 64 93 108 115 115 95 90 84 78 78 78 81 81 79 74 76 75 77 69 67 66 67 68 66 67 64 65 64 62
159 172 193 226 212 205 203 210 238 229 255 121 59 28 48 92 120 127 124 103 99 88 85 81 82 83 81 80 78 82 86 82 68 65 66 66 66 70 72 71 69 69 68
154 157 163 214 240 221 211 226 237 225 252 318 28 31 70 87 110 107 93 93 95 93 86 85 87 84 81 81 86 85 85 79 72 68 66 69 71 72 80 78 79 75 73
175 164 160 185 238 225 228 232 231 230 251 306 83 61 88 84 106 111 90 86 76 70 76 85 89 86 85 81 87 86 82 73 73 73 69 71 73 71 73 81 79 77 74
219 178 164 203 228 232 230 232 227 244 253 289 349 92 106 108 115 116 107 101 90 89 83 83 86 86 82 85 87 79 81 83 76 75 73 71 74 73 73 75 77 77 71
234 221 207 232 233 233 229 235 251 261 271 285 322 61 107 102 116 136 125 106 100 105 86 90 87 96 85 87 83 86 82 85 81 76 77 75 74 76 75 76 77 76 79
250 249 244 242 234 233 230 237 245 262 284 288 302 323 49 107 121 133 123 116 115 117 86 101 93 97 92 89 88 86 86 85 88 80 79 79 79 79 79 77 79 78 79
273 258 249 237 238 233 235 243 251 262 269 278 292 308 16 106 121 134 126 111 127 135 120 116 96 96 99 105 90 87 81 91 91 90 83 82 82 81 79 80 81 80 80
295 271 255 249 245 241 243 249 257 265 268 279 289 301 317 355 95 143 149 141 159 161 140 116 106 95 96 98 93 83 84 95 94 94 90 83 83 84 82 84 82 83 83
290 282 250 252 243 245 251 256 261 267 277 287 290 294 300 309 301 262 209 275 245 222 215 207 147 111 88 94 84 82 88 92 97 101 97 93 89 90 89 89 90 85 83
298 263 241 254 262 262 264 265 269 275 282 290 298 302 290 292 281 258 235 254 271 269 244 245 233 195 124 106 101 96 95 99 108 109 103 102 100 92 93 94 93 92 90
271 270 251 258 265 272 274 276 280 287 292 299 304 308 305 305 303 287 271 266 270 276 264 259 248 222 195 187 165 127 116 123 118 115 114 111 110 103 101 101 101 98 98
279 281 279 273 275 281 283 285 286 287 292 296 306 311 312 310 311 305 284 263 263 285 278 249 239 218 202 194 183 165 146 143 132 123 122 123 121 118 112 109 105 109 108
305 302 295 271 276 279 286 290 293 296 296 295 299 303 308 315 314 313 308 278 257 255 283 262 251 220 211 202 210 190 182 154 143 135 133 131 129 125 124 120 119 114 110
297 294 294 289 278 283 285 290 294 293 295 298 303 309 315 320 322 319 316 303 277 269 279 259 259 235 219 216 211 198 191 184 167 152 149 142 139 135 135 135 131 126 122
301 297 294 294 288 291 288 293 289 291 294 296 301 307 312 321 323 323 321 315 304 278 256 280 246 241 223 207 213 212 205 197 189 177 173 168 157 151 153 148 145 142 139